Wind_Speed
4 4 4 3 3 4 4 5 6 6 6 7 8 8 8 8 8 7 7 6 6 5 5 5 5 4 4 3 3 3 4 4 4 4 4 4 5 6 6 6 6 6 6
3 3 3 3 4 4 4 5 6 6 6 7 7 8 8 8 8 8 8 7 7 6 6 6 6 5 5 4 4 4 4 4 5 5 5 5 5 6 6 7 7 7 7
3 2 2 2 3 4 4 5 5 6 6 7 7 8 8 8 8 8 8 8 8 7 7 6 6 5 5 5 4 4 4 4 5 5 5 6 6 6 7 7 8 8 7
3 2 2 2 3 4 4 5 5 6 6 7 7 8 8 8 8 8 8 8 8 8 8 7 7 6 5 5 5 5 5 5 5 5 5 6 7 6 7 8 8 8 8
3 2 2 2 3 3 4 4 5 5 6 7 7 8 8 8 8 8 8 9 9 8 8 8 7 7 6 6 6 5 5 5 6 6 6 6 7 7 7 8 8 9 8
3 2 2 2 2 3 3 4 5 5 6 7 7 8 8 8 8 9 9 9 9 9 9 8 8 7 7 6 6 6 6 6 6 6 6 7 7 7 7 8 9 9 9
3 2 2 2 2 2 3 4 4 5 6 7 7 8 8 8 9 9 9 9 9 9 9 8 8 7 7 7 7 7 6 6 6 6 6 7 7 7 7 8 9 9 9
3 3 2 2 2 2 3 3 4 5 6 6 7 7 8 8 9 9 9 9 9 9 9 8 8 7 7 7 7 7 6 6 7 7 7 7 6 7 7 8 8 9 10
4 3 3 3 3 3 4 4 4 4 5 6 6 7 7 8 9 10 10 10 9 9 9 9 8 7 7 7 7 7 6 6 6 7 7 7 7 7 7 8 8 9 10
4 4 4 3 3 3 3 4 4 4 5 5 6 7 7 8 9 10 10 10 10 10 9 9 9 8 7 6 6 6 6 6 6 6 6 7 7 7 7 7 8 8 9
5 4 3 3 2 3 3 4 4 4 5 5 5 6 8 9 10 10 11 11 10 10 10 9 8 7 6 6 5 6 5 5 5 5 6 6 7 7 8 8 8 8 9
5 3 3 2 2 2 3 4 4 4 4 4 5 6 8 9 10 11 11 11 11 11 10 9 8 7 6 5 5 4 5 4 5 5 5 6 6 7 7 8 8 8 9
4 3 3 2 1 2 2 3 3 4 4 4 5 7 8 9 10 11 11 12 12 11 10 9 8 7 6 5 4 4 4 4 5 5 5 6 6 7 7 8 8 8 8
4 4 3 2 1 1 2 2 3 3 3 4 6 7 8 9 10 10 11 12 11 11 11 10 9 7 5 4 4 3 3 4 4 5 5 6 7 7 7 7 8 9 9
5 4 3 2 1 0 1 2 3 3 4 5 6 7 8 9 9 10 11 11 11 11 11 10 9 7 6 5 4 3 3 3 4 4 5 5 6 7 7 7 8 9 9
5 4 3 2 2 1 1 2 3 3 4 4 6 7 8 8 9 10 10 11 11 11 11 11 10 8 7 6 4 4 4 4 4 5 5 5 5 6 7 7 8 9 9
5 4 3 3 2 2 2 2 3 3 3 4 5 6 7 8 9 10 10 10 11 11 11 11 10 9 7 6 5 5 5 5 5 5 5 4 4 5 6 7 8 8 8
6 5 4 3 2 2 2 2 2 2 3 4 5 6 7 8 9 9 10 10 11 11 11 11 10 9 8 7 6 6 6 5 5 5 5 4 4 5 6 7 7 8 8
7 5 4 3 2 2 1 1 1 2 3 4 5 6 7 8 8 9 10 10 10 10 10 11 10 10 9 8 7 6 6 6 5 5 6 5 5 5 6 7 7 8 8
7 6 5 4 3 2 1 1 1 2 2 3 4 6 6 7 8 9 9 9 10 10 10 10 11 11 10 9 8 7 7 6 6 6 6 6 6 6 6 6 7 8 8
8 6 5 4 3 2 2 1 1 2 3 3 4 5 6 7 7 8 9 9 9 10 10 10 10 11 11 10 9 9 8 7 7 7 7 7 6 6 6 7 7 8 8
8 7 5 4 4 3 3 2 2 2 3 3 4 5 6 7 7 8 9 9 9 10 9 9 10 10 11 10 9 9 9 8 8 7 7 8 7 7 8 7 7 7 8
8 7 6 5 5 4 3 3 2 3 3 4 4 5 6 7 8 8 9 9 9 9 9 10 10 10 11 10 10 9 9 9 8 8 9 9 8 8 8 8 8 8 8
8 8 7 6 5 5 4 4 3 3 3 4 5 5 6 7 8 8 9 9 9 9 10 10 11 11 11 11 11 10 10 9 9 10 10 10 10 10 10 10 9 8 9
9 8 7 7 6 6 5 5 4 4 4 5 5 5 6 7 8 9 9 9 9 10 10 11 11 11 11 11 11 11 11 10 10 11 11 12 12 11 11 10 10 9 10
10 9 9 8 7 7 6 6 5 5 5 5 6 6 7 7 8 9 10 10 10 11 11 11 11 11 11 11 12 12 12 12 12 12 12 12 12 12 12 12 11 11 11
Wind_Direction
102 91 90 80 76 59 56 51 45 40 33 29 25 19 16 13 10 3 2 359 351 345 342 337 335 327 319 305 290 281 274 266 255 244 235 229 217 212 211 209 205 205 201
112 101 91 92 75 55 50 46 42 38 31 25 22 17 14 9 5 360 356 353 352 346 338 334 333 330 320 308 298 286 276 267 257 249 242 236 222 217 214 215 211 209 205
136 112 97 87 63 52 52 47 44 37 30 24 20 14 10 6 2 360 357 353 351 344 337 330 327 326 321 312 302 291 276 265 257 253 246 235 230 223 218 215 214 214 208
158 131 104 77 60 55 52 45 36 28 25 20 16 13 8 3 359 357 354 351 348 342 337 329 323 320 315 305 295 289 277 267 257 253 248 239 234 230 225 221 219 215 211
167 153 122 91 67 57 53 41 28 25 21 17 16 16 10 2 357 354 351 347 343 337 331 325 320 313 306 300 292 287 279 268 260 252 248 243 236 232 229 225 222 216 214
163 154 123 98 77 67 55 40 29 28 23 19 18 13 8 4 358 354 349 344 340 333 328 323 315 310 302 298 294 287 282 270 264 255 249 244 237 234 234 226 224 220 219
158 147 123 101 82 68 51 37 35 30 26 21 16 12 9 6 0 354 347 343 340 333 328 323 314 307 302 296 291 286 281 273 264 260 254 247 241 240 236 227 224 226 225
148 133 110 96 87 62 51 49 43 36 30 23 17 14 11 6 359 355 350 346 341 337 333 329 320 309 302 298 293 288 280 274 266 263 257 251 244 243 239 229 227 228 228
147 131 110 95 89 75 57 51 44 42 31 21 18 16 11 5 360 355 350 347 344 340 336 333 326 315 307 299 294 291 284 272 267 263 257 251 247 246 241 231 229 231 231
158 145 129 114 89 71 50 39 40 39 26 19 19 17 12 6 359 355 353 351 348 343 338 334 328 321 309 299 293 289 284 273 267 264 258 254 250 245 240 234 232 233 234
158 146 137 122 90 65 48 43 40 29 21 21 22 17 11 4 359 359 359 357 354 348 342 336 331 326 315 303 291 286 284 276 271 263 259 254 248 245 241 238 235 236 239
163 157 137 114 87 65 54 47 32 20 17 20 18 13 8 3 1 1 1 359 356 352 348 341 334 329 320 309 297 287 284 279 274 267 260 255 253 248 243 241 240 241 244
173 164 142 122 88 65 55 44 23 10 12 17 14 11 6 3 3 4 2 360 358 357 356 352 345 341 333 322 312 300 288 286 280 273 266 260 258 253 249 245 241 242 247
180 167 155 142 110 65 41 28 10 9 12 15 12 9 6 4 4 5 4 2 3 4 4 4 1 358 352 342 332 313 297 290 285 276 269 264 259 254 250 248 246 245 249
189 179 175 176 182 54 347 350 353 1 9 9 7 7 7 7 6 7 8 8 10 11 10 12 14 13 7 360 346 324 310 301 292 287 277 272 265 257 254 249 249 250 252
191 191 196 208 239 272 306 335 343 351 2 6 4 7 10 10 9 9 10 11 13 15 16 17 19 17 14 11 359 346 335 322 311 301 292 287 272 261 256 255 255 256 256
199 203 210 218 244 266 291 315 336 347 360 4 7 9 9 8 8 9 11 12 14 15 16 16 16 15 15 14 7 355 342 332 324 318 312 297 282 272 260 255 260 263 263
200 204 214 219 240 261 278 301 329 355 360 359 3 5 5 5 6 7 9 10 11 13 14 14 14 14 14 13 8 355 344 342 335 331 326 312 295 282 269 263 262 265 267
202 204 215 222 230 239 257 296 340 352 356 360 2 1 0 1 3 4 6 7 8 10 11 12 12 14 14 11 6 355 345 341 336 336 329 320 309 292 280 274 273 269 266
203 204 212 218 222 231 246 276 324 337 346 352 355 353 355 357 360 1 3 5 5 7 9 11 13 13 14 11 5 358 349 341 336 334 330 325 314 304 293 285 280 274 270
200 204 212 223 225 228 239 247 268 310 329 338 346 347 350 353 358 0 2 3 5 6 7 9 10 10 11 9 5 1 353 346 341 335 332 327 322 313 303 292 284 281 277
201 209 215 222 225 228 235 247 272 294 310 326 339 344 347 350 355 357 358 360 2 3 3 2 3 5 6 5 2 358 355 351 347 340 334 325 318 313 307 300 295 286 281
208 215 218 225 226 227 234 248 272 286 296 311 323 332 339 345 349 351 353 356 356 357 359 356 356 357 358 359 358 356 352 349 344 338 335 328 317 311 309 303 293 291 282
212 217 219 222 228 233 239 249 269 286 292 301 311 322 333 340 343 345 347 349 349 348 349 350 352 353 351 351 352 351 349 345 340 335 331 325 318 312 307 300 295 287 280
215 219 221 223 231 238 242 249 266 280 291 295 302 311 323 331 336 339 340 340 341 341 340 341 344 347 347 346 345 344 343 339 335 329 327 323 317 310 303 297 290 283 277
220 223 226 229 235 241 247 254 263 276 287 294 299 304 312 317 325 331 334 334 335 336 336 336 338 338 338 337 337 336 335 332 328 325 322 319 316 312 305 297 291 285 276
Height
5892 5892 5892 5892 5892 5892 5892 5891 5891 5891 5890 5890 5889 5889 5888 5887 5887 5886 5885 5885 5884 5884 5884 5883 5883 5883 5883 5883 5884 5884 5885 5885 5885 5886 5887 5887 5888 5889 5890 5891 5892 5893 5894
5893 5893 5893 5892 5892 5892 5892 5892 5892 5891 5891 5890 5890 5889 5888 5887 5887 5886 5885 5884 5884 5884 5883 5883 5883 5883 5882 5883 5883 5883 5884 5884 5885 5885 5886 5887 5887 5888 5889 5891 5892 5893 5893
5893 5894 5894 5893 5893 5893 5893 5893 5892 5892 5891 5891 5890 5889 5888 5888 5887 5886 5885 5884 5884 5883 5883 5883 5883 5882 5882 5882 5882 5883 5883 5883 5884 5884 5885 5886 5887 5888 5889 5890 5891 5892 5893
5894 5894 5894 5894 5894 5894 5893 5893 5893 5892 5892 5891 5890 5889 5889 5888 5887 5886 5885 5884 5883 5883 5882 5882 5882 5882 5881 5881 5881 5882 5882 5882 5883 5883 5884 5885 5886 5887 5887 5888 5889 5890 5892
5894 5894 5894 5894 5894 5894 5894 5893 5893 5893 5892 5891 5890 5890 5889 5888 5887 5886 5885 5884 5883 5882 5881 5881 5881 5880 5880 5880 5880 5880 5881 5881 5881 5882 5883 5884 5884 5885 5886 5887 5888 5889 5891
5894 5895 5895 5895 5894 5894 5894 5894 5893 5893 5892 5892 5891 5890 5889 5888 5887 5886 5885 5884 5882 5881 5880 5880 5879 5879 5879 5878 5879 5879 5879 5880 5880 5881 5881 5882 5883 5884 5885 5886 5887 5888 5889
5895 5895 5895 5895 5895 5894 5894 5894 5894 5893 5892 5892 5891 5890 5889 5888 5887 5886 5884 5883 5882 5880 5879 5879 5878 5877 5877 5877 5877 5877 5878 5878 5879 5879 5880 5881 5882 5883 5883 5884 5885 5887 5888
5895 5895 5895 5895 5895 5895 5895 5894 5894 5893 5893 5892 5891 5890 5889 5888 5887 5885 5884 5882 5881 5879 5878 5877 5876 5875 5875 5875 5875 5875 5876 5876 5877 5878 5878 5879 5880 5881 5882 5883 5884 5885 5887
5895 5895 5895 5895 5895 5895 5895 5895 5894 5894 5893 5892 5891 5890 5889 5888 5887 5885 5883 5882 5880 5878 5877 5876 5875 5874 5873 5873 5873 5873 5874 5874 5875 5876 5877 5877 5878 5879 5880 5881 5882 5883 5885
5895 5895 5896 5896 5895 5895 5895 5895 5894 5894 5893 5893 5892 5891 5890 5888 5887 5885 5883 5881 5879 5877 5876 5874 5873 5872 5872 5871 5871 5871 5872 5873 5873 5874 5875 5876 5877 5877 5878 5879 5880 5882 5883
5895 5895 5896 5896 5896 5896 5896 5895 5895 5894 5894 5893 5892 5891 5890 5888 5887 5885 5883 5881 5879 5876 5875 5873 5871 5871 5870 5870 5870 5870 5870 5871 5872 5872 5873 5874 5875 5876 5877 5878 5878 5879 5881
5895 5896 5896 5896 5896 5896 5896 5896 5895 5895 5894 5893 5893 5891 5890 5889 5887 5885 5883 5880 5878 5876 5874 5872 5870 5869 5868 5868 5868 5868 5869 5869 5870 5871 5871 5872 5873 5874 5875 5876 5877 5877 5878
5895 5895 5895 5896 5896 5896 5896 5896 5896 5895 5894 5894 5893 5892 5890 5889 5887 5885 5883 5880 5878 5875 5873 5871 5869 5868 5867 5867 5867 5867 5868 5868 5868 5869 5870 5870 5871 5872 5873 5874 5875 5875 5876
5895 5895 5895 5896 5896 5896 5896 5896 5896 5895 5895 5894 5893 5892 5890 5889 5887 5885 5883 5880 5878 5875 5873 5871 5869 5868 5867 5866 5866 5866 5867 5867 5867 5868 5868 5869 5869 5870 5871 5871 5872 5873 5874
5894 5895 5895 5896 5896 5897 5897 5896 5896 5895 5895 5894 5893 5891 5890 5889 5887 5885 5883 5881 5878 5876 5873 5871 5869 5868 5867 5866 5866 5866 5866 5866 5866 5866 5867 5867 5867 5868 5869 5869 5870 5871 5871
5894 5895 5895 5896 5896 5897 5897 5896 5896 5895 5895 5894 5893 5891 5890 5889 5887 5885 5883 5881 5878 5876 5874 5872 5870 5869 5867 5867 5866 5866 5865 5865 5865 5865 5865 5865 5866 5866 5867 5868 5868 5869 5869
5893 5894 5895 5896 5896 5896 5896 5896 5896 5895 5894 5894 5893 5891 5890 5889 5887 5885 5883 5881 5879 5877 5874 5872 5871 5869 5868 5867 5866 5866 5865 5865 5864 5864 5864 5864 5864 5865 5865 5866 5866 5867 5867
5893 5894 5895 5895 5896 5896 5896 5896 5895 5895 5894 5894 5893 5891 5890 5889 5887 5885 5884 5882 5879 5877 5875 5873 5871 5870 5869 5867 5867 5866 5865 5864 5864 5863 5863 5863 5863 5863 5863 5864 5864 5865 5865
5892 5893 5894 5895 5895 5895 5895 5895 5895 5895 5894 5893 5892 5891 5890 5889 5887 5886 5884 5882 5880 5878 5876 5874 5872 5870 5869 5868 5867 5866 5865 5864 5863 5863 5862 5862 5862 5862 5862 5862 5862 5862 5863
5891 5892 5893 5894 5894 5895 5895 5895 5895 5894 5894 5893 5892 5891 5890 5889 5887 5886 5884 5882 5880 5878 5876 5874 5873 5871 5869 5868 5867 5865 5864 5863 5863 5862 5861 5861 5860 5860 5860 5860 5860 5860 5861
5891 5892 5893 5893 5894 5894 5894 5895 5895 5894 5894 5893 5892 5891 5890 5889 5887 5885 5884 5882 5880 5878 5877 5875 5873 5871 5870 5868 5867 5865 5864 5863 5862 5861 5860 5860 5859 5859 5859 5858 5858 5858 5858
5890 5891 5892 5892 5893 5893 5894 5894 5894 5894 5893 5893 5892 5891 5890 5888 5887 5885 5884 5882 5880 5878 5877 5875 5873 5872 5870 5868 5867 5865 5864 5863 5861 5860 5859 5858 5858 5857 5857 5856 5856 5856 5855
5889 5890 5891 5892 5892 5893 5893 5893 5893 5893 5892 5892 5891 5890 5889 5888 5886 5885 5883 5882 5880 5878 5877 5875 5873 5872 5870 5868 5866 5865 5863 5862 5860 5860 5858 5857 5856 5855 5854 5854 5853 5853 5853
5888 5889 5890 5891 5891 5892 5892 5892 5892 5892 5892 5891 5890 5890 5889 5887 5886 5884 5883 5881 5880 5878 5876 5875 5873 5871 5869 5867 5866 5864 5863 5861 5860 5858 5857 5855 5854 5853 5852 5852 5851 5850 5850
5886 5887 5888 5889 5890 5890 5891 5891 5891 5891 5890 5890 5889 5888 5888 5887 5885 5884 5882 5881 5879 5877 5876 5874 5872 5870 5869 5867 5865 5863 5861 5859 5858 5857 5855 5853 5852 5850 5849 5848 5848 5847 5847
5884 5886 5887 5888 5888 5889 5889 5889 5890 5890 5889 5889 5888 5887 5886 5885 5884 5883 5881 5880 5878 5876 5875 5873 5871 5869 5868 5866 5864 5862 5860 5858 5856 5855 5853 5851 5849 5847 5846 5845 5844 5844 5844